| time (UTC) | temp F | wind direction | speed MPH | gust MPH | rain 1hr in | rain 24hr in | rain mn in | humidity % | barometer mb |
| 20260502203331 | 56 | 274 | 1.0 | 2.0 | 0.00 | 0.00 | 0.00 | 61 | 1021.9 |
| 20260502202329 | 56 | 274 | 2.0 | 3.0 | 0.00 | 0.00 | 0.00 | 59 | 1021.8 |
| 20260502201334 | 56 | 288 | 2.0 | 4.0 | 0.00 | 0.00 | 0.00 | 59 | 1021.9 |
| 20260502200332 | 57 | 282 | 1.0 | 3.0 | 0.00 | 0.00 | 0.00 | 58 | 1021.9 |
| 20260502195331 | 58 | 220 | 1.0 | 3.0 | 0.00 | 0.00 | 0.00 | 56 | 1021.9 |
| 20260502195105 | 58 | 220 | 2.0 | 3.0 | 0.00 | 0.00 | 0.00 | 53 | 1021.9 |
| 20260502193330 | 59 | 220 | 0.0 | 3.0 | 0.00 | 0.00 | 0.00 | 51 | 1021.8 |
| 20260502192330 | 59 | 96 | 0.0 | 2.0 | 0.00 | 0.00 | 0.00 | 50 | 1021.7 |
| 20260502191328 | 60 | 96 | 1.0 | 4.0 | 0.00 | 0.00 | 0.00 | 50 | 1021.7 |
| 20260502190330 | 60 | 79 | 3.0 | 4.0 | 0.00 | 0.00 | 0.00 | 48 | 1021.6 |
| 20260502185331 | 60 | 79 | 3.0 | 5.0 | 0.00 | 0.00 | 0.00 | 48 | 1021.6 |
| 20260502184329 | 61 | 76 | 3.0 | 4.0 | 0.00 | 0.00 | 0.00 | 46 | 1021.5 |
| 20260502184113 | 61 | 73 | 4.0 | 5.0 | 0.00 | 0.00 | 0.00 | 46 | 1021.5 |
| 20260502182328 | 61 | 65 | 4.0 | 5.0 | 0.00 | 0.00 | 0.00 | 45 | 1021.4 |
| 20260502181330 | 61 | 61 | 4.0 | 5.0 | 0.00 | 0.00 | 0.00 | 45 | 1021.5 |
| 20260502180329 | 62 | 59 | 4.0 | 5.0 | 0.00 | 0.00 | 0.00 | 45 | 1021.5 |
| 20260502170328 | 64 | 34 | 2.0 | 5.0 | 0.00 | 0.00 | 0.00 | 43 | 1021.5 |
| 20260502170220 | 65 | 51 | 2.0 | 4.0 | 0.00 | 0.00 | 0.00 | 43 | 1021.7 |
| 20260502164326 | 65 | 58 | 3.0 | 5.0 | 0.00 | 0.00 | 0.00 | 42 | 1021.8 |
| 20260502163325 | 65 | 25 | 2.0 | 5.0 | 0.00 | 0.00 | 0.00 | 42 | 1021.8 |
| 20260502162338 | 65 | 37 | 2.0 | 4.0 | 0.00 | 0.00 | 0.00 | 41 | 1022.0 |
| 20260502161327 | 66 | 1 | 2.0 | 6.0 | 0.00 | 0.00 | 0.00 | 41 | 1021.9 |
| 20260502160325 | 66 | 79 | 2.0 | 4.0 | 0.00 | 0.00 | 0.00 | 41 | 1022.0 |
| 20260502151837 | 68 | 75 | 6.0 | 10.0 | 0.00 | 0.00 | 0.00 | 39 | 1022.6 |
| 20260502151448 | 68 | 76 | 7.0 | 10.0 | 0.00 | 0.00 | 0.00 | 40 | 1022.6 |
| 20260502130321 | 69 | 6 | 6.0 | 11.0 | 0.00 | 0.00 | 0.00 | 39 | 1023.9 |
| 20260502123321 | 69 | 117 | 4.0 | 10.0 | 0.00 | 0.00 | 0.00 | 40 | 1024.1 |
| 20260502122318 | 69 | 0 | 5.0 | 11.0 | 0.00 | 0.00 | 0.00 | 39 | 1024.2 |
| 20260502121319 | 70 | 58 | 3.0 | 9.0 | 0.00 | 0.00 | 0.00 | 44 | 1024.2 |
| 20260502120322 | 70 | 289 | 4.0 | 9.0 | 0.00 | 0.00 | 0.00 | 42 | 1024.3 |
| 20260502115323 | 69 | 35 | 4.0 | 9.0 | 0.00 | 0.00 | 0.00 | 45 | 1024.4 |
| 20260502114319 | 70 | 333 | 3.0 | 9.0 | 0.00 | 0.00 | 0.00 | 44 | 1024.4 |
| 20260502113321 | 69 | 14 | 2.0 | 9.0 | 0.00 | 0.00 | 0.00 | 41 | 1024.5 |
| 20260502112322 | 68 | 20 | 5.0 | 11.0 | 0.00 | 0.00 | 0.00 | 42 | 1024.7 |
| 20260502112101 | 68 | 120 | 4.0 | 10.0 | 0.00 | 0.00 | 0.00 | 44 | 1024.7 |
| 20260502110317 | 68 | 329 | 3.0 | 12.0 | 0.00 | 0.00 | 0.00 | 40 | 1024.9 |
| 20260502105319 | 69 | 52 | 3.0 | 6.0 | 0.00 | 0.00 | 0.00 | 40 | 1024.9 |
| 20260502104319 | 68 | 0 | 2.0 | 5.0 | 0.00 | 0.00 | 0.00 | 44 | 1025.1 |
| 20260502103322 | 67 | 244 | 4.0 | 12.0 | 0.00 | 0.00 | 0.00 | 42 | 1025.2 |
| 20260502102316 | 68 | 27 | 5.0 | 9.0 | 0.00 | 0.00 | 0.00 | 41 | 1025.2 |
| 20260502101326 | 68 | 334 | 4.0 | 9.0 | 0.00 | 0.00 | 0.00 | 44 | 1025.4 |
| 20260502100318 | 67 | 330 | 3.0 | 5.0 | 0.00 | 0.00 | 0.00 | 52 | 1025.5 |
| 20260502091316 | 66 | 73 | 2.0 | 5.0 | 0.00 | 0.00 | 0.00 | 48 | 1025.7 |
| 20260502090314 | 65 | 0 | 1.0 | 6.0 | 0.00 | 0.00 | 0.00 | 48 | 1025.9 |
| 20260502071312 | 58 | 338 | 3.0 | 6.0 | 0.00 | 0.00 | 0.00 | 61 | 1026.1 |
| 20260502070850 | 56 | 336 | 3.0 | 5.0 | 0.00 | 0.00 | 0.00 | 64 | 1026.0 |
| 20260502070445 | 57 | 337 | 3.0 | 7.0 | 0.00 | 0.00 | 0.00 | 62 | 1026.0 |
| 20260502064314 | 55 | 313 | 1.0 | 3.0 | 0.00 | 0.00 | 0.00 | 66 | 1026.0 |
| 20260502063744 | 53 | 248 | 2.0 | 3.0 | 0.00 | 0.00 | 0.00 | 66 | 1025.9 |
| 20260502063423 | 54 | 314 | 1.0 | 4.0 | 0.00 | 0.00 | 0.00 | 66 | 1026.0 |
| 20260502061310 | 52 | 331 | 2.0 | 4.0 | 0.00 | 0.00 | 0.00 | 67 | 1026.0 |
| 20260502060320 | 50 | 310 | 3.0 | 4.0 | 0.00 | 0.00 | 0.00 | 66 | 1026.0 |
| 20260502055943 | 50 | 224 | 3.0 | 5.0 | 0.00 | 0.00 | 0.00 | 65 | 1026.1 |
| 20260502054954 | 49 | 295 | 4.0 | 5.0 | 0.00 | 0.00 | 0.00 | 64 | 1026.0 |
| 20260502053309 | 49 | 240 | 3.0 | 5.0 | 0.00 | 0.00 | 0.00 | 64 | 1025.9 |
| 20260502052308 | 49 | 275 | 4.0 | 6.0 | 0.00 | 0.00 | 0.00 | 62 | 1025.9 |
| 20260502051307 | 47 | 319 | 5.0 | 6.0 | 0.00 | 0.00 | 0.00 | 64 | 1025.9 |
| 20260502050308 | 47 | 269 | 2.0 | 5.0 | 0.00 | 0.00 | 0.00 | 65 | 1026.0 |
| 20260502045308 | 47 | 282 | 3.0 | 4.0 | 0.00 | 0.00 | 0.00 | 65 | 1025.9 |
| 20260502044309 | 46 | 313 | 3.0 | 5.0 | 0.00 | 0.00 | 0.00 | 65 | 1025.8 |
| 20260502043307 | 46 | 243 | 4.0 | 5.0 | 0.00 | 0.00 | 0.00 | 64 | 1025.9 |
| 20260502042312 | 46 | 282 | 4.0 | 6.0 | 0.00 | 0.00 | 0.00 | 65 | 1025.7 |
| 20260502041309 | 45 | 285 | 2.0 | 5.0 | 0.00 | 0.00 | 0.00 | 65 | 1025.7 |
| 20260502040308 | 46 | 247 | 3.0 | 6.0 | 0.00 | 0.00 | 0.00 | 64 | 1025.7 |
| 20260502035306 | 46 | 272 | 3.0 | 5.0 | 0.00 | 0.00 | 0.00 | 63 | 1025.7 |
| 20260502034308 | 45 | 285 | 3.0 | 6.0 | 0.00 | 0.00 | 0.00 | 66 | 1025.6 |
| 20260502033934 | 45 | 226 | 3.0 | 7.0 | 0.00 | 0.00 | 0.00 | 65 | 1025.7 |
| 20260502032306 | 45 | 296 | 5.0 | 7.0 | 0.00 | 0.00 | 0.00 | 63 | 1025.6 |
| 20260502031306 | 45 | 261 | 3.0 | 5.0 | 0.00 | 0.00 | 0.00 | 65 | 1025.7 |
| 20260502030929 | 46 | 262 | 3.0 | 9.0 | 0.00 | 0.00 | 0.00 | 64 | 1025.6 |
| 20260502025301 | 46 | 292 | 4.0 | 10.0 | 0.00 | 0.00 | 0.00 | 64 | 1025.7 |
| 20260502024304 | 46 | 220 | 2.0 | 6.0 | 0.00 | 0.00 | 0.00 | 63 | 1025.7 |
| 20260502023301 | 46 | 302 | 4.0 | 5.0 | 0.00 | 0.00 | 0.00 | 62 | 1025.7 |
| 20260502022306 | 46 | 248 | 2.0 | 4.0 | 0.00 | 0.00 | 0.00 | 62 | 1025.8 |
| 20260502021301 | 47 | 250 | 2.0 | 6.0 | 0.00 | 0.00 | 0.00 | 62 | 1025.8 |
| 20260502020256 | 46 | 251 | 3.0 | 4.0 | 0.00 | 0.00 | 0.00 | 62 | 1025.9 |
| 20260502015255 | 46 | 244 | 4.0 | 5.0 | 0.00 | 0.00 | 0.00 | 62 | 1025.8 |
| 20260502014253 | 47 | 244 | 3.0 | 5.0 | 0.00 | 0.00 | 0.00 | 60 | 1025.8 |
| 20260502013253 | 46 | 286 | 4.0 | 5.0 | 0.00 | 0.00 | 0.00 | 60 | 1025.8 |
| 20260502012650 | 47 | 248 | 2.0 | 4.0 | 0.00 | 0.00 | 0.00 | 60 | 1026.0 |
| 20260502012355 | 47 | 255 | 3.0 | 4.0 | 0.00 | 0.00 | 0.00 | 61 | 1025.9 |
| 20260502010251 | 47 | 271 | 2.0 | 5.0 | 0.00 | 0.00 | 0.00 | 60 | 1025.8 |
| 20260502005252 | 47 | 228 | 4.0 | 4.0 | 0.00 | 0.00 | 0.00 | 60 | 1025.9 |
| 20260502004252 | 47 | 276 | 4.0 | 6.0 | 0.00 | 0.00 | 0.00 | 61 | 1025.9 |
| 20260502003250 | 47 | 278 | 3.0 | 5.0 | 0.00 | 0.00 | 0.00 | 60 | 1026.1 |
| 20260502002906 | 47 | 250 | 2.0 | 5.0 | 0.00 | 0.00 | 0.00 | 60 | 1026.1 |
| 20260502001246 | 47 | 271 | 4.0 | 5.0 | 0.00 | 0.00 | 0.00 | 60 | 1026.0 |
| 20260502000247 | 47 | 282 | 4.0 | 5.0 | 0.00 | 0.00 | 0.00 | 61 | 1026.2 |
| 20260501235242 | 47 | 269 | 2.0 | 5.0 | 0.00 | 0.00 | 0.00 | 61 | 1026.2 |
| 20260501234244 | 47 | 276 | 3.0 | 5.0 | 0.00 | 0.00 | 0.00 | 63 | 1026.2 |
| 20260501233244 | 47 | 274 | 5.0 | 7.0 | 0.00 | 0.00 | 0.00 | 63 | 1026.3 |
| 20260501232246 | 47 | 250 | 4.0 | 6.0 | 0.00 | 0.00 | 0.00 | 63 | 1026.3 |
| 20260501231242 | 48 | 247 | 2.0 | 5.0 | 0.00 | 0.00 | 0.00 | 60 | 1026.3 |
| 20260501230244 | 48 | 235 | 4.0 | 6.0 | 0.00 | 0.00 | 0.00 | 60 | 1026.3 |
| 20260501225243 | 48 | 299 | 4.0 | 6.0 | 0.00 | 0.00 | 0.00 | 58 | 1026.3 |
| 20260501224918 | 48 | 282 | 4.0 | 6.0 | 0.00 | 0.00 | 0.00 | 59 | 1026.2 |
| 20260501223244 | 48 | 288 | 4.0 | 6.0 | 0.00 | 0.00 | 0.00 | 59 | 1026.2 |
| 20260501222248 | 48 | 282 | 4.0 | 6.0 | 0.00 | 0.00 | 0.00 | 59 | 1026.1 |
| 20260501221303 | 48 | 286 | 5.0 | 7.0 | 0.00 | 0.00 | 0.00 | 60 | 1026.1 |
| 20260501220803 | 48 | 276 | 3.0 | 5.0 | 0.00 | 0.00 | 0.00 | 61 | 1026.0 |
| 20260501220418 | 48 | 272 | 4.0 | 6.0 | 0.00 | 0.00 | 0.00 | 60 | 1026.0 |
| 20260501215359 | 48 | 271 | 4.0 | 10.0 | 0.00 | 0.00 | 0.00 | 60 | 1025.9 |
| 20260501213242 | 49 | 237 | 3.0 | 5.0 | 0.00 | 0.00 | 0.00 | 59 | 1026.0 |
| 20260501212239 | 49 | 283 | 4.0 | 7.0 | 0.00 | 0.00 | 0.00 | 59 | 1026.0 |
| 20260501211238 | 49 | 283 | 3.0 | 6.0 | 0.00 | 0.00 | 0.00 | 60 | 1025.9 |
| 20260501210234 | 48 | 265 | 2.0 | 5.0 | 0.00 | 0.00 | 0.00 | 60 | 1025.8 |
| 20260501205235 | 48 | 255 | 2.0 | 5.0 | 0.00 | 0.00 | 0.00 | 63 | 1025.9 |